Weather in Mackay

Australia     21°07′30″S   149°10′26″E
temp.,
°C
wind,
m/s
gust,
m/s
humid.,
%
clouds,
%
prec.,
mm/h
press.,
hPa
HPBL,
m
11 may, tue
tue1101:00+23s3391100 0.1 1014182
04:00+22ssw339276 0.9 1014125
07:00+22s239058 0.2 1015136
10:00+24se228195 0.4 1016279
13:00+24ese338083 0.1 1014329
16:00+25ese347849 0.1 1013380
19:00+24se338698 0.1 1015101
22:00+23se228719 0.4 101580
12 may, wed
wed1201:00+22sw119062 0.4 101448
04:00+22sw2191100 0.8 101378
07:00+22ssw2292100 0.5 101597
10:00+24se118698 1.3 1015262
13:00+24ese338334 0.5 1013455
16:00+25ese34790 0.5 1012345
19:00+24se33870 0.0 1013138
22:00+23sse22870 0.0 101485
13 may, thu
thu1301:00+22wsw21890 0.0 101271
04:00+22sw22890 0.0 101284
07:00+22ssw33880 0.0 1013123
10:00+24se22800 0.0 1014257
13:00+24ese33836 0.0 1011343
16:00+24e44830 0.0 1010267
19:00+24ese12870 0.0 101246
22:00+23sw11860 0.0 101339
14 may, fri
fri1401:00+22ssw22861 0.0 101281
04:00+23s35830 0.0 1012212
07:00+22sse68710 0.0 1014369
10:00+23sse88590 0.0 1015477
13:00+22se77660 0.0 1013392
16:00+23ese66640 0.0 1012395
19:00+23ese34650 0.0 1014420
22:00+21s23670 0.0 1015324
15 may, sat
sat1501:00+20ssw33690 0.0 1015118
04:00+20s34710 0.0 1014207
07:00+20s56730 0.0 1015332
10:00+21se66540 0.0 1016497
13:00+21se55650 0.0 1014438
16:00+22ese55650 0.0 1013464
19:00+22sse33600 0.0 1015400
22:00+20s33680 0.0 1016228